FENGYUN 1C DEB, 31431

Orbit data source: Space-Track

FENGYUN 1C DEB, 31431 is space debris in SSO originally from a launch on Mon, 10 May 1999 UTC launched from the Taiyaun Space Center, China (TSC). Fengyun 1C debris stems from the Chinese weather satellite Fengyun-1C, which was intentionally destroyed by a Chinese anti-satellite missile in 2007. This event dramatically increased the amount of space debris, with thousands of trackable fragments posing hazards to satellites and human spaceflight. The Fengyun 1C debris cloud has become a focal point in discussions about space sustainability and the need for international regulations to prevent the creation of new debris.

Loading next visibility...
Identifier
31431, 1999-025BTT
Orbit
SSO
Country
Flag of CNCN / PRC
Related business
Manufacturer
Unknown
Mission
Spacecraft
Bus & Motor
Unknown
Mass
Unknown
Launch date (UTC)
1999-05-10 (27 years ago)
Launch vehicle
Unknown
Launch site
Taiyaun Space Center, China (TSC)
Object type
Payload
Rocket body
Debris
Shape & HBR
Unknown shape, 0.1 m
Radar Cross Section
Medium (>0.1 m² and <1 m²)

Expand to show TLE details & history
Last TLE update: 7 hours ago

TLE from 7 hours ago
0 FENGYUN 1C DEB
1 31431U 99025BTT 26169.60900533  .00001315  00000-0  79421-3 0  9993
2 31431  98.5313  51.3724 0133376 287.8402  70.8256 14.03910162971674
Epoch: 2026-06-18T14:36Z
TLE epoch observation values (Epoch: 2026-06-18T14:36:58.060Z)
Latitude
0.00002°
Longitude
-74.7194°
Altitude
852.542 km
Speed
7.442 km/s
True Right ascension
03h 25m 29s
True Declination
0° 00' 00"
Sunlit
Object was in daylight at epoch
Visualization orbit readout
Latitude
Unknown
Longitude
Unknown
Altitude
Unknown
Speed
Unknown
Apparent Right ascension
Unknown
Apparent Declination
Unknown
Sunlit
N/A
Visualization observer readout
Local Sidereal Time
07:56:27
Azimuth
Unknown
Elevation
Unknown
Doppler factor
Unknown
Orbital elements
Apogee altitude
974.23 km
Perigee altitude
780.685 km
Semi-major axis
7,255.594 km
Eccentricity
0.01334
Inclination
98.5313°
RAAN
51.3724°
Arg. of periapsis
287.8402°
True anomaly
72.27698°
Mean anomaly
70.8256°
Eccentric anomaly
71.55051°
Mean motion
3.51183 °/min
Orbital period
102.51 mins
BSTAR
0.00079421
Loading maneuver chart data...
Computing Atmospheric mass density...
Loading historical data...
Loading historical data...
Loading historical data...
Loading historical data...
Loading historical data...
Loading historical data...
Loading historical data...

Documentation

Showing up to 5 results
|